Date String (YYYY-MM-DD hh:mm:ss) UTC,Instrument flags,absolute air pressure of the measurement (hPa),sample flow rate (lpm),inlet stack bypass flow (lpm),air temperature of the measurement (°C),ambient temperature measured by the external sensor (°C),aerosol sample conditioner tube jacket temperature (°C),OPC LED temperature (°C),internal box temperature (°C),relative humidity of the measurement (%),span deviation,mass concentration of particles derived from Lorenz-Mie calculation of OPC scattering (μg/m³),mass concentration of particles derived from Lorenz-Mie calculation of OPC scattering (μg/m³),mass concentration of particles derived from Lorenz-Mie calculation of OPC scattering (μg/m³)
DateTimeUTC,F1_M11,P_M11,Q1_M11,Q2_M11,T1_M11,T2_M11,T3_M11,T4_M11,T5_M11,U1_M11,ZSPAN_M11,X0_M11,X2_M11,X1_M11
2024-02-04 21:00:00,SystemResetWarning,0828.8,5.00,000.00,022.2,021.7,000.0,030.5,024.0,18.7,0000.9,0009.30,0006.86,0006.79
2024-02-04 21:01:00,SystemResetWarning,0828.7,5.00,000.00,022.2,021.8,000.0,030.5,024.1,18.8,0000.3,0009.36,0006.90,0006.82
2024-02-04 21:02:00,SystemResetWarning,0828.7,5.00,000.00,022.3,021.8,000.0,030.5,024.1,18.7,-000.2,0009.43,0006.93,0006.84
2024-02-04 21:03:00,SystemResetWarning,0828.7,5.00,000.00,022.3,021.8,000.0,030.5,024.1,18.6,-000.5,0009.44,0006.95,0006.86
2024-02-04 21:04:00,SystemResetWarning,0828.9,5.00,000.00,022.3,021.8,000.0,030.6,024.1,18.6,-000.4,0009.20,0006.98,0006.89
2024-02-04 21:05:00,SystemResetWarning,0829.0,5.01,000.00,022.3,021.8,000.0,030.6,024.1,18.6,-000.2,0008.96,0007.03,0006.93
2024-02-04 21:06:00,SystemResetWarning,0829.0,5.00,000.00,022.3,021.8,000.0,030.6,024.1,18.6,0000.1,0008.96,0007.04,0006.95
2024-02-04 21:07:00,SystemResetWarning,0828.8,5.00,000.00,022.3,021.8,000.0,030.6,024.1,18.7,0000.7,0008.98,0007.06,0006.96
2024-02-04 21:08:00,SystemResetWarning,0828.7,5.00,000.00,022.3,021.8,000.0,030.6,024.1,18.9,0000.6,0009.02,0007.08,0006.97
2024-02-04 21:09:00,SystemResetWarning,0828.7,5.00,000.00,022.3,021.8,000.0,030.6,024.1,19.0,0000.9,0009.03,0007.09,0006.98
2024-02-04 21:10:00,SystemResetWarning,0828.9,4.99,000.00,022.3,021.8,000.0,030.6,024.1,18.9,0000.7,0009.02,0007.09,0006.98
2024-02-04 21:11:00,SystemResetWarning,0829.0,5.01,000.00,022.3,021.8,000.0,030.6,024.1,18.8,0000.5,0009.06,0007.12,0007.00
2024-02-04 21:12:00,SystemResetWarning,0829.1,5.00,000.00,022.3,021.8,000.0,030.6,024.1,18.8,0000.5,0009.12,0007.16,0007.02
2024-02-04 21:13:00,SystemResetWarning,0828.9,5.00,000.00,022.3,021.8,000.0,030.6,024.1,18.7,0000.8,0009.10,0007.17,0007.04
2024-02-04 21:14:00,SystemResetWarning,0828.9,5.00,000.00,022.3,021.8,000.0,030.6,024.1,18.7,0000.8,0009.14,0007.18,0007.06
2024-02-04 21:15:00,SystemResetWarning,0828.8,5.00,000.00,022.3,021.9,000.0,030.6,024.1,18.7,0000.8,0009.20,0007.21,0007.07
2024-02-04 21:16:00,SystemResetWarning,0828.8,5.00,000.00,022.4,021.9,000.0,030.6,024.1,18.8,0000.6,0009.63,0007.23,0007.08
2024-02-04 21:17:00,SystemResetWarning,0828.9,5.00,000.00,022.4,021.9,000.0,030.6,024.2,18.8,0000.1,0010.20,0007.25,0007.09
2024-02-04 21:18:00,SystemResetWarning,0829.0,5.00,000.00,022.4,021.9,000.0,030.6,024.2,18.8,-000.1,0010.24,0007.28,0007.11
2024-02-04 21:19:00,SystemResetWarning,0829.0,5.01,000.00,022.4,021.9,000.0,030.7,024.2,18.9,-000.4,0010.25,0007.29,0007.13
2024-02-04 21:20:00,SystemResetWarning,0829.0,5.01,000.00,022.4,021.9,000.0,030.7,024.2,19.0,-000.3,0010.31,0007.34,0007.18
2024-02-04 21:21:00,SystemResetWarning,0829.0,5.01,000.00,022.4,021.9,000.0,030.7,024.2,19.1,0000.0,0010.38,0007.41,0007.25
2024-02-04 21:22:00,SystemResetWarning,0829.0,4.99,000.00,022.4,021.9,000.0,030.7,024.2,19.1,0000.1,0010.43,0007.46,0007.30
2024-02-04 21:23:00,SystemResetWarning,0829.0,4.99,000.00,022.4,021.9,000.0,030.7,024.2,19.1,0000.2,0010.50,0007.49,0007.35
2024-02-04 21:24:00,SystemResetWarning,0828.9,5.00,000.00,022.4,021.9,000.0,030.7,024.2,18.8,0000.1,0010.60,0007.56,0007.41
2024-02-04 21:25:00,SystemResetWarning,0828.9,5.01,000.00,022.4,021.9,000.0,030.7,024.2,18.6,0000.0,0010.66,0007.62,0007.46
2024-02-04 21:26:00,SystemResetWarning,0828.9,5.01,000.00,022.4,021.9,000.0,030.7,024.2,18.5,-000.2,0010.74,0007.70,0007.53
2024-02-04 21:27:00,SystemResetWarning,0829.0,5.01,000.00,022.4,021.9,000.0,030.7,024.2,18.5,-000.3,0010.56,0007.75,0007.58
2024-02-04 21:28:00,SystemResetWarning,0828.9,4.99,000.00,022.4,022.0,000.0,030.7,024.2,18.5,0000.1,0009.97,0007.80,0007.63
2024-02-04 21:29:00,SystemResetWarning,0828.9,5.00,000.00,022.4,022.0,000.0,030.7,024.3,18.5,0000.4,0010.01,0007.84,0007.67
2024-02-04 21:30:00,SystemResetWarning,0829.0,5.00,000.00,022.5,022.0,000.0,030.7,024.3,18.5,0000.4,0010.11,0007.87,0007.70
2024-02-04 21:31:00,SystemResetWarning,0829.1,5.01,000.00,022.5,022.0,000.0,030.8,024.3,18.5,0000.3,0010.17,0007.89,0007.71
2024-02-04 21:32:00,SystemResetWarning,0829.2,5.02,000.00,022.5,022.0,000.0,030.8,024.3,18.5,0000.3,0010.18,0007.89,0007.71
2024-02-04 21:33:00,SystemResetWarning,0829.1,5.00,000.00,022.5,022.0,000.0,030.8,024.3,18.5,0000.2,0010.26,0007.90,0007.70
2024-02-04 21:34:00,SystemResetWarning,0829.1,5.00,000.00,022.5,022.0,000.0,030.8,024.3,18.6,0000.4,0010.36,0007.90,0007.69
2024-02-04 21:35:00,SystemResetWarning,0829.1,4.99,000.00,022.5,022.0,000.0,030.8,024.3,18.7,0000.4,0010.37,0007.91,0007.69
2024-02-04 21:36:00,SystemResetWarning,0829.1,4.99,000.00,022.5,022.0,000.0,030.8,024.3,18.8,0000.6,0010.43,0007.93,0007.71
2024-02-04 21:37:00,SystemResetWarning,0829.1,5.00,000.00,022.5,022.0,000.0,030.8,024.3,18.9,0000.6,0011.11,0007.94,0007.73
2024-02-04 21:38:00,SystemResetWarning,0829.2,5.00,000.00,022.5,022.0,000.0,030.8,024.3,18.8,0000.8,0011.10,0007.95,0007.75
2024-02-04 21:39:00,SystemResetWarning,0829.1,5.01,000.00,022.5,022.0,000.0,030.8,024.3,18.8,0000.8,0011.11,0007.96,0007.77
2024-02-04 21:40:00,SystemResetWarning,0829.1,5.01,000.00,022.5,022.0,000.0,030.8,024.3,18.8,0000.5,0011.16,0008.00,0007.81
2024-02-04 21:41:00,SystemResetWarning,0829.1,5.00,000.00,022.5,022.0,000.0,030.8,024.4,18.7,0000.2,0011.75,0008.07,0007.88
2024-02-04 21:42:00,SystemResetWarning,0829.2,5.00,000.00,022.6,022.1,000.0,030.8,024.4,18.7,0000.2,0011.81,0008.13,0007.95
2024-02-04 21:43:00,SystemResetWarning,0829.2,5.00,000.00,022.6,022.1,000.0,030.8,024.4,18.6,0000.5,0011.84,0008.19,0008.02
2024-02-04 21:44:00,SystemResetWarning,0829.2,5.00,000.00,022.6,022.1,000.0,030.8,024.4,18.5,0000.4,0011.87,0008.23,0008.08
2024-02-04 21:45:00,SystemResetWarning,0829.3,4.99,000.00,022.6,022.1,000.0,030.8,024.4,18.5,0000.8,0011.82,0008.29,0008.15
2024-02-04 21:46:00,SystemResetWarning,0829.3,5.00,000.00,022.6,022.1,000.0,030.9,024.4,18.6,0001.0,0011.85,0008.33,0008.20
2024-02-04 21:47:00,SystemResetWarning,0829.4,5.00,000.00,022.6,022.1,000.0,030.9,024.4,18.7,0000.9,0011.95,0008.34,0008.21
2024-02-04 21:48:00,SystemResetWarning,0829.4,5.00,000.00,022.6,022.1,000.0,030.9,024.4,18.7,0000.9,0011.30,0008.33,0008.22
2024-02-04 21:49:00,SystemResetWarning,0829.3,5.01,000.00,022.6,022.1,000.0,030.9,024.4,18.7,0000.9,0011.32,0008.38,0008.25
2024-02-04 21:50:00,SystemResetWarning,0829.3,5.01,000.00,022.6,022.1,000.0,030.9,024.4,18.6,0000.8,0011.38,0008.42,0008.29
2024-02-04 21:51:00,SystemResetWarning,0829.3,5.01,000.00,022.6,022.1,000.0,030.9,024.4,18.5,0001.0,0011.42,0008.46,0008.33
2024-02-04 21:52:00,SystemResetWarning,0829.3,5.00,000.00,022.6,022.1,000.0,030.9,024.4,18.4,0000.9,0011.08,0008.48,0008.34
2024-02-04 21:53:00,SystemResetWarning,0829.3,5.00,000.00,022.6,022.1,000.0,030.9,024.4,18.4,0001.2,0010.88,0008.50,0008.36
2024-02-04 21:54:00,SystemResetWarning,0829.3,4.99,000.00,022.6,022.1,000.0,030.9,024.4,18.4,0001.0,0010.96,0008.52,0008.37
2024-02-04 21:55:00,SystemResetWarning,0829.4,5.00,000.00,022.6,022.1,000.0,030.9,024.4,18.4,0000.7,0011.00,0008.53,0008.36
2024-02-04 21:56:00,SystemResetWarning,0829.4,5.02,000.00,022.6,022.1,000.0,030.9,024.4,18.3,0000.8,0011.01,0008.53,0008.35
2024-02-04 21:57:00,SystemResetWarning,0829.4,4.99,000.00,022.6,022.1,000.0,030.9,024.5,18.3,0000.5,0011.05,0008.54,0008.35
2024-02-04 21:58:00,SystemResetWarning,0829.4,4.99,000.00,022.6,022.2,000.0,030.9,024.5,18.4,0000.3,0010.91,0008.53,0008.34
2024-02-04 21:59:00,SystemResetWarning,0829.4,5.00,000.00,022.7,022.2,000.0,031.0,024.5,18.4,0000.4,0010.90,0008.52,0008.33
